Louis Armstrong New Orleans International Airport
KMSY : now visible

Airfield :











YOU CAN JOIN US ON...

 
LOGIN :

Register | Disclaimer

   EN    FR    IT 

 









Legend :    VFR   Marginal VFR   IFR   Intensive IFR   Very Intensive IFR
Visi :
Ceiling :
>= 8 km
>= 3000ft
5 to 8 km
1000 to 3000 ft
1500m to 5 km
500 to 1000 ft
800 to 1500m
200 to 500 ft
< 800m
< 200 ft
Symbols :   Thunderstorms  Fog  Heavy snow  Heavy precipitations  Wind > 20 kt






- Airport Elevation : 4 ft
- IATA code : MSY


KMSY - Louis Armstrong New Orleans International

CURRENT METAR :
  • 170853Z 00000KT 10SM CLR 03/00 A3006 RMK AO2 SLP182 T00280000 51002

EXPIRED METARs :
  • 170753Z 00000KT 10SM CLR 04/00 A3006 RMK AO2 SLP181 T00390000
  • 170653Z 00000KT 10SM CLR 04/00 A3006 RMK AO2 SLP181 T00390000

TAF KMSY
Valid from the 17 at 06:00 until the 18 at 12:00 UTC


170520Z 1706/1812 VRB03KT P6SM SKC
KZHU FIR / North America



MET'MAP, your aeronautical weather chart ! - Copyright ORBIFLY December 2007 - Disclaimer

ORBIFLY MET'MAP TEAM :

Programming & Development : Alexandra Zaïnal
Concept & original design : Baudouin d'Aumeries
Assistance for programming : Marc-Olivier Méhu
Technical & hardware support : Manuel Goepfert

Contact : metmap@orbifly.com




SOURCES & CREDITS :

   NOAA       Earth
Advisory